TimeEDT,TemperatureF,Dew PointF,Humidity,Sea Level PressureIn,VisibilityMPH,Wind Direction,Wind SpeedMPH,Gust SpeedMPH,PrecipitationIn,Events,Conditions,WindDirDegrees,DateUTC
12:53 AM,75.9,73.0,91,29.81,10.0,Calm,Calm,-,N/A,,Clear,0,2013-09-22 04:53:00
1:53 AM,75.9,73.0,91,29.81,10.0,Calm,Calm,-,N/A,,Partly Cloudy,0,2013-09-22 05:53:00
2:53 AM,77.0,73.9,90,29.80,10.0,Calm,Calm,-,N/A,,Clear,0,2013-09-22 06:53:00
3:53 AM,75.9,73.9,94,29.79,10.0,Calm,Calm,-,N/A,,Clear,0,2013-09-22 07:53:00
4:53 AM,75.9,73.9,94,29.80,10.0,Calm,Calm,-,N/A,,Clear,0,2013-09-22 08:53:00
5:53 AM,75.0,73.0,94,29.79,10.0,Calm,Calm,-,N/A,,Clear,0,2013-09-22 09:53:00
6:53 AM,75.0,72.0,90,29.80,10.0,Calm,Calm,-,N/A,,Clear,0,2013-09-22 10:53:00
7:53 AM,75.9,72.0,87,29.81,10.0,SSE,4.6,-,N/A,,Clear,150,2013-09-22 11:53:00
8:53 AM,79.0,73.0,82,29.81,10.0,South,6.9,-,N/A,,Clear,170,2013-09-22 12:53:00
9:53 AM,81.0,73.0,77,29.83,10.0,South,6.9,-,N/A,,Clear,190,2013-09-22 13:53:00
10:53 AM,82.9,72.0,69,29.85,10.0,SSW,9.2,-,N/A,,Partly Cloudy,200,2013-09-22 14:53:00
11:53 AM,84.9,71.1,63,29.84,10.0,SSW,13.8,19.6,N/A,,Partly Cloudy,210,2013-09-22 15:53:00
12:53 PM,87.1,71.1,59,29.83,10.0,SW,13.8,-,N/A,,Partly Cloudy,220,2013-09-22 16:53:00
1:53 PM,88.0,70.0,55,29.82,10.0,WSW,12.7,-,N/A,,Partly Cloudy,240,2013-09-22 17:53:00
2:53 PM,88.0,70.0,55,29.81,10.0,SW,13.8,-,N/A,,Clear,230,2013-09-22 18:53:00
3:53 PM,87.1,73.0,63,29.79,10.0,WSW,13.8,-,N/A,,Partly Cloudy,250,2013-09-22 19:53:00
4:53 PM,86.0,73.0,65,29.78,10.0,WSW,13.8,-,N/A,,Clear,240,2013-09-22 20:53:00
5:53 PM,84.0,73.0,69,29.79,10.0,WSW,9.2,-,N/A,,Partly Cloudy,240,2013-09-22 21:53:00
6:53 PM,82.0,73.0,74,29.81,10.0,WSW,9.2,-,N/A,,Partly Cloudy,240,2013-09-22 22:53:00
7:53 PM,82.0,73.0,74,29.81,10.0,West,3.5,-,N/A,,Clear,270,2013-09-22 23:53:00
8:53 PM,82.0,73.9,76,29.84,10.0,Calm,Calm,-,N/A,,Clear,0,2013-09-23 00:53:00
9:53 PM,80.1,75.0,85,29.86,10.0,SW,3.5,-,N/A,,Clear,230,2013-09-23 01:53:00
10:53 PM,80.1,75.9,87,29.87,10.0,South,3.5,-,N/A,,Clear,180,2013-09-23 02:53:00
11:53 PM,79.0,75.9,90,29.86,10.0,Calm,Calm,-,N/A,,Clear,0,2013-09-23 03:53:00